Corsicana, TX

6:42 PM CDT on May 26, 2018 (GMT -0500)
Campbell-Corsicana Municipal

Weather History for KCRS - January, 2014

Change the Weather History Date:

Thursday, January 2, 2014

  Actual Average (KTYR) Record (KTYR)
Temperature  
Mean Temperature 36 °F -  
Max Temperature 44 °F 55 °F 76 °F (1910)
Min Temperature 27 °F 37 °F 7 °F (1979)
Degree Days  
Heating Degree Days 30    
Moisture  
Dew Point 21 °F    
Average Humidity 59    
Maximum Humidity 75    
Minimum Humidity 37    
Precipitation  
Precipitation 0.00 in - - ()
Sea Level Pressure  
Sea Level Pressure 30.41 in    
Wind  
Wind Speed 14 mph (NNW)    
Max Wind Speed 20 mph    
Max Gust Speed 29 mph    
Visibility 10 miles    
Events      
Averages and records for this station are not official NWS values.
T = Trace of Precipitation, MM = Missing Value Source: NWS Daily Summary

Daily Weather History Graph

Daily Weather History Graph

Search for Another Location

Airport or City:

Astronomy

Jan. 02, 2014 Rise Set
Actual Time 7:26 AM CST 5:33 PM CST
Civil Twilight 6:59 AM CST 6:00 PM CST
Nautical Twilight 6:29 AM CST 6:30 PM CST
Astronomical Twilight 5:59 AM CST 7:00 PM CST
Moon 8:15 AM CST (1/2) 7:23 PM CST (1/2)
Length of Visible Light 11h 00m
Length of Day
10h 06m
Waxing Crescent, 3% of the Moon is Illuminated
Jan 2
Waxing Crescent
Jan 7
First Quarter
Jan 15
Full
Jan 23
Last Quarter
Jan 30
New

Hourly Weather History & Observations

Time (CST) Temp. Windchill Dew Point Humidity Pressure Visibility Wind Dir Wind Speed Gust Speed Precip Events Conditions
12:53 AM 39.0 °F 31.0 °F 28.9 °F 67% 30.20 in 10.0 mi NNW 13.8 mph 27.6 mph N/A   Clear
1:53 AM 35.1 °F 24.8 °F 26.1 °F 70% 30.24 in 9.0 mi NNW 17.3 mph 27.6 mph N/A   Clear
2:53 AM 33.1 °F 21.9 °F 23.0 °F 66% 30.29 in 9.0 mi NNW 18.4 mph 28.8 mph N/A   Clear
3:53 AM 30.9 °F 18.7 °F 21.0 °F 67% 30.32 in 10.0 mi NNW 19.6 mph 28.8 mph N/A   Clear
4:53 AM 30.0 °F 18.3 °F 21.0 °F 69% 30.33 in 10.0 mi NNW 17.3 mph 27.6 mph N/A   Clear
5:53 AM 28.9 °F 17.3 °F 21.0 °F 72% 30.36 in 10.0 mi NNW 16.1 mph 21.9 mph N/A   Clear
6:53 AM 28.0 °F 18.6 °F 21.0 °F 75% 30.38 in 9.0 mi NNW 10.4 mph - N/A   Clear
7:53 AM 27.0 °F 14.7 °F 19.9 °F 75% 30.40 in 10.0 mi NNW 16.1 mph - N/A   Clear
8:53 AM 28.9 °F 16.5 °F 19.0 °F 67% 30.44 in 10.0 mi NNW 18.4 mph 27.6 mph N/A   Clear
9:53 AM 30.9 °F 19.1 °F 18.0 °F 59% 30.46 in 10.0 mi North 18.4 mph 26.5 mph N/A   Clear
10:53 AM 34.0 °F 23.0 °F 18.0 °F 52% 30.48 in 10.0 mi NNW 18.4 mph - N/A   Clear
11:53 AM 37.0 °F 27.4 °F 19.0 °F 48% 30.46 in 10.0 mi North 17.3 mph - N/A   Clear
12:53 PM 39.9 °F 31.8 °F 19.0 °F 43% 30.45 in 10.0 mi North 15.0 mph - N/A   Clear
1:53 PM 41.0 °F 34.3 °F 19.0 °F 41% 30.43 in 10.0 mi North 11.5 mph - N/A   Clear
2:53 PM 44.1 °F 39.0 °F 19.0 °F 37% 30.43 in 10.0 mi NNW 9.2 mph - N/A   Clear
3:53 PM 44.1 °F 38.6 °F 19.0 °F 37% 30.44 in 10.0 mi North 10.4 mph - N/A   Clear
4:53 PM 42.1 °F 35.7 °F 19.0 °F 40% 30.45 in 10.0 mi North 11.5 mph - N/A   Clear
5:53 PM 37.9 °F 34.4 °F 21.9 °F 53% 30.46 in 10.0 mi NNW 4.6 mph - N/A   Clear
6:53 PM 35.1 °F 31.0 °F 21.9 °F 59% 30.47 in 10.0 mi NNW 4.6 mph - N/A   Clear
7:53 PM 34.0 °F 29.8 °F 21.0 °F 59% 30.47 in 10.0 mi North 4.6 mph - N/A   Clear
8:53 PM 30.0 °F 25.2 °F 21.9 °F 72% 30.49 in 10.0 mi NW 4.6 mph - N/A   Clear
9:53 PM 33.1 °F 28.7 °F 19.9 °F 59% 30.49 in 10.0 mi NNW 4.6 mph - N/A   Clear
10:53 PM 32.0 °F 27.5 °F 19.9 °F 61% 30.49 in 10.0 mi North 4.6 mph - N/A   Clear
11:53 PM 32.0 °F 28.7 °F 19.9 °F 61% 30.49 in 10.0 mi North 3.5 mph - N/A   Clear